Tracking 17857 objects as of 30-September-2016
HD Live streaming from Space Station
objects crossing your sky now

METEOSAT 5 AKM

Track METEOSAT 5 AKM now!


NORAD ID: 21904
Int'l Code: 1991-015E
Perigee: 35,159.2 km
Apogee: 36,510.4 km
Inclination: 14.4 °
Period: 1,438.2 minutes
Semi major axis: 42205 km
RCS: 0.9471 m2 (medium)
Launch date: March 2, 1991
Source: European Space Agency (ESA)
Launch site: FRENCH GUIANA (FRGUI)

Note: This is a ROCKET BODY
Your satellite tracking list
Your tracking list is empty





NASA's NSSDC Master Catalog

Two Line Element Set (TLE):
1 21904U 91015E   16271.77567789 -.00000429  00000-0  00000+0 0  9990
2 21904  14.4486   7.9399 0160068 142.3107 240.6047  1.00125586 80943
Source of the keplerian elements: AFSPC

N2YO: 601